Time,TemperatureF,DewpointF,PressureIn,WindDirection,WindDirectionDegrees,WindSpeedMPH,WindSpeedGustMPH,Humidity,HourlyPrecipIn,Conditions,Clouds,dailyrainin,SoftwareType,DateUTC
2013-07-14 00:02:00,69.0,-99.9,-100.00,ENE,76,1.0,2.0,-999,0.00,,,0.00,,2013-07-14 05:02:00,
2013-07-14 00:12:00,70.0,-99.9,-100.00,ESE,105,2.0,3.0,-999,0.00,,,0.00,,2013-07-14 05:12:00,
2013-07-14 00:23:00,70.0,-99.9,-100.00,ESE,105,2.0,3.0,-999,0.00,,,0.00,,2013-07-14 05:23:00,
2013-07-14 00:32:00,70.0,-99.9,-100.00,ESE,105,2.0,3.0,-999,0.00,,,0.00,,2013-07-14 05:32:00,
2013-07-14 00:43:00,70.0,-99.9,-100.00,East,97,3.0,6.0,-999,0.00,,,0.00,,2013-07-14 05:43:00,
2013-07-14 00:53:00,70.0,-99.9,-100.00,East,97,3.0,6.0,-999,0.00,,,0.00,,2013-07-14 05:53:00,
2013-07-14 01:01:00,70.0,-99.9,-100.00,East,97,3.0,6.0,-999,0.00,,,0.00,,2013-07-14 06:01:00,
2013-07-14 01:12:00,70.0,-99.9,-100.00,East,97,5.0,6.0,-999,0.00,,,0.00,,2013-07-14 06:12:00,
2013-07-14 01:22:00,70.0,-99.9,-100.00,East,97,5.0,6.0,-999,0.00,,,0.00,,2013-07-14 06:22:00,
2013-07-14 01:32:00,70.0,-99.9,-100.00,East,97,5.0,6.0,-999,0.00,,,0.00,,2013-07-14 06:32:00,
2013-07-14 01:42:00,67.0,-99.9,-100.00,ENE,72,1.0,1.0,-999,0.00,,,0.00,,2013-07-14 06:42:00,
2013-07-14 01:53:00,67.0,-99.9,-100.00,ENE,72,1.0,1.0,-999,0.00,,,0.00,,2013-07-14 06:53:00,
2013-07-14 02:02:00,67.0,-99.9,-100.00,ENE,72,1.0,1.0,-999,0.00,,,0.00,,2013-07-14 07:02:00,
2013-07-14 02:12:00,67.0,-99.9,-100.00,ENE,63,1.0,2.0,-999,0.00,,,0.00,,2013-07-14 07:12:00,
2013-07-14 02:22:00,67.0,-99.9,-100.00,ENE,63,1.0,2.0,-999,0.00,,,0.00,,2013-07-14 07:22:00,
2013-07-14 02:33:00,67.0,-99.9,-100.00,ENE,63,1.0,2.0,-999,0.00,,,0.00,,2013-07-14 07:33:00,
2013-07-14 02:43:00,67.0,-99.9,-100.00,North,352,0.0,2.0,-999,0.00,,,0.00,,2013-07-14 07:43:00,
2013-07-14 02:53:00,67.0,-99.9,-100.00,North,352,0.0,2.0,-999,0.00,,,0.00,,2013-07-14 07:53:00,
2013-07-14 03:01:00,67.0,-99.9,-100.00,North,352,0.0,2.0,-999,0.00,,,0.00,,2013-07-14 08:01:00,
2013-07-14 03:10:00,65.0,-99.9,-100.00,NNW,343,2.0,3.0,-999,0.00,,,0.00,,2013-07-14 08:10:00,
2013-07-14 03:11:00,64.0,-99.9,-100.00,ENE,73,0.0,1.0,-999,0.00,,,0.00,,2013-07-14 08:11:00,
2013-07-14 03:22:00,64.0,-99.9,-100.00,ENE,73,0.0,1.0,-999,0.00,,,0.00,,2013-07-14 08:22:00,
2013-07-14 03:32:00,64.0,-99.9,-100.00,ENE,73,0.0,1.0,-999,0.00,,,0.00,,2013-07-14 08:32:00,
2013-07-14 03:42:00,65.0,-99.9,-100.00,NNW,343,2.0,3.0,-999,0.00,,,0.00,,2013-07-14 08:42:00,
2013-07-14 03:53:00,65.0,-99.9,-100.00,NNW,343,2.0,3.0,-999,0.00,,,0.00,,2013-07-14 08:53:00,
2013-07-14 04:01:00,65.0,-99.9,-100.00,NNW,343,2.0,3.0,-999,0.00,,,0.00,,2013-07-14 09:01:00,
2013-07-14 05:12:00,65.0,-99.9,-100.00,NNE,15,2.0,2.0,-999,-99.99,,,0.00,,2013-07-14 10:12:00,
2013-07-14 05:22:00,65.0,-99.9,-100.00,NNE,15,2.0,2.0,-999,-99.99,,,0.00,,2013-07-14 10:22:00,
2013-07-14 05:32:00,65.0,-99.9,-100.00,NNE,15,2.0,2.0,-999,-99.99,,,0.00,,2013-07-14 10:32:00,
2013-07-14 05:42:00,65.0,-99.9,-100.00,NNE,24,0.0,0.0,-999,0.00,,,0.00,,2013-07-14 10:42:00,
2013-07-14 05:53:00,65.0,-99.9,-100.00,NNE,24,0.0,0.0,-999,0.00,,,0.00,,2013-07-14 10:53:00,
2013-07-14 06:02:00,65.0,-99.9,-100.00,NNE,24,0.0,0.0,-999,0.00,,,0.00,,2013-07-14 11:02:00,
2013-07-14 06:11:00,65.0,-99.9,-100.00,ESE,104,1.0,3.0,-999,0.00,,,0.00,,2013-07-14 11:11:00,
2013-07-14 06:22:00,65.0,-99.9,-100.00,ESE,104,1.0,3.0,-999,0.00,,,0.00,,2013-07-14 11:22:00,
2013-07-14 06:32:00,65.0,-99.9,-100.00,ESE,104,1.0,3.0,-999,0.00,,,0.00,,2013-07-14 11:32:00,
2013-07-14 06:43:00,66.0,-99.9,-100.00,East,82,1.0,2.0,-999,0.00,,,0.00,,2013-07-14 11:43:00,
2013-07-14 06:53:00,66.0,-99.9,-100.00,East,82,1.0,2.0,-999,0.00,,,0.00,,2013-07-14 11:53:00,
2013-07-14 07:02:00,66.0,-99.9,-100.00,East,82,1.0,2.0,-999,0.00,,,0.00,,2013-07-14 12:02:00,
2013-07-14 07:12:00,65.0,-99.9,-100.00,North,350,1.0,2.0,-999,0.00,,,0.00,,2013-07-14 12:12:00,
2013-07-14 07:22:00,65.0,-99.9,-100.00,North,350,1.0,2.0,-999,0.00,,,0.00,,2013-07-14 12:22:00,
2013-07-14 07:33:00,65.0,-99.9,-100.00,North,350,1.0,2.0,-999,0.00,,,0.00,,2013-07-14 12:33:00,
2013-07-14 07:43:00,70.0,-99.9,-100.00,ESE,107,1.0,2.0,-999,0.00,,,0.00,,2013-07-14 12:43:00,
2013-07-14 07:53:00,70.0,-99.9,-100.00,ESE,107,1.0,2.0,-999,0.00,,,0.00,,2013-07-14 12:53:00,
2013-07-14 08:01:00,70.0,-99.9,-100.00,ESE,107,1.0,2.0,-999,0.00,,,0.00,,2013-07-14 13:01:00,
2013-07-14 08:11:00,72.0,-99.9,-100.00,ESE,122,3.0,4.0,-999,0.00,,,0.00,,2013-07-14 13:11:00,
2013-07-14 08:22:00,72.0,-99.9,-100.00,ESE,122,3.0,4.0,-999,0.00,,,0.00,,2013-07-14 13:22:00,
2013-07-14 08:32:00,72.0,-99.9,-100.00,ESE,122,3.0,4.0,-999,0.00,,,0.00,,2013-07-14 13:32:00,
2013-07-14 08:43:00,73.0,-99.9,-100.00,SE,126,3.0,5.0,-999,0.00,,,0.00,,2013-07-14 13:43:00,
2013-07-14 08:53:00,73.0,-99.9,-100.00,SE,126,3.0,5.0,-999,0.00,,,0.00,,2013-07-14 13:53:00,
2013-07-14 09:02:00,73.0,-99.9,-100.00,SE,126,3.0,5.0,-999,0.00,,,0.00,,2013-07-14 14:02:00,
2013-07-14 09:12:00,76.0,-99.9,-100.00,ESE,102,2.0,4.0,-999,0.00,,,0.00,,2013-07-14 14:12:00,
2013-07-14 09:23:00,76.0,-99.9,-100.00,ESE,102,2.0,4.0,-999,0.00,,,0.00,,2013-07-14 14:23:00,
2013-07-14 09:33:00,76.0,-99.9,-100.00,ESE,102,2.0,4.0,-999,0.00,,,0.00,,2013-07-14 14:33:00,
2013-07-14 09:43:00,77.0,-99.9,-100.00,East,87,3.0,5.0,-999,0.00,,,0.00,,2013-07-14 14:43:00,
2013-07-14 09:53:00,77.0,-99.9,-100.00,East,87,3.0,5.0,-999,0.00,,,0.00,,2013-07-14 14:53:00,
2013-07-14 10:01:00,77.0,-99.9,-100.00,East,87,3.0,5.0,-999,0.00,,,0.00,,2013-07-14 15:01:00,
2013-07-14 10:12:00,77.0,-99.9,-100.00,SSE,160,4.0,6.0,-999,0.00,,,0.00,,2013-07-14 15:12:00,
2013-07-14 10:22:00,77.0,-99.9,-100.00,SSE,160,4.0,6.0,-999,0.00,,,0.00,,2013-07-14 15:22:00,
2013-07-14 10:32:00,77.0,-99.9,-100.00,SSE,160,4.0,6.0,-999,0.00,,,0.00,,2013-07-14 15:32:00,
2013-07-14 10:43:00,79.0,-99.9,-100.00,South,169,4.0,6.0,-999,0.00,,,0.00,,2013-07-14 15:43:00,
2013-07-14 10:53:00,79.0,-99.9,-100.00,South,169,4.0,6.0,-999,0.00,,,0.00,,2013-07-14 15:53:00,
2013-07-14 11:01:00,79.0,-99.9,-100.00,South,169,4.0,6.0,-999,0.00,,,0.00,,2013-07-14 16:01:00,
2013-07-14 11:11:00,80.0,-99.9,-100.00,South,185,4.0,7.0,-999,0.00,,,0.00,,2013-07-14 16:11:00,
2013-07-14 11:22:00,80.0,-99.9,-100.00,South,185,4.0,7.0,-999,0.00,,,0.00,,2013-07-14 16:22:00,
2013-07-14 11:32:00,80.0,-99.9,-100.00,South,185,4.0,7.0,-999,0.00,,,0.00,,2013-07-14 16:32:00,
2013-07-14 11:43:00,80.0,-99.9,-100.00,South,179,3.0,6.0,-999,0.00,,,0.00,,2013-07-14 16:43:00,
2013-07-14 11:54:00,80.0,-99.9,-100.00,South,179,3.0,6.0,-999,0.00,,,0.00,,2013-07-14 16:54:00,
2013-07-14 12:03:00,80.0,-99.9,-100.00,South,179,3.0,6.0,-999,0.00,,,0.00,,2013-07-14 17:03:00,
2013-07-14 12:12:00,82.0,-99.9,-100.00,SSE,159,3.0,6.0,-999,0.00,,,0.00,,2013-07-14 17:12:00,
2013-07-14 12:23:00,82.0,-99.9,-100.00,SSE,159,3.0,6.0,-999,0.00,,,0.00,,2013-07-14 17:23:00,
2013-07-14 12:32:00,82.0,-99.9,-100.00,SSE,159,3.0,6.0,-999,0.00,,,0.00,,2013-07-14 17:32:00,
2013-07-14 12:43:00,83.0,-99.9,-100.00,SE,145,6.0,8.0,-999,0.00,,,0.00,,2013-07-14 17:43:00,
2013-07-14 12:53:00,83.0,-99.9,-100.00,SE,145,6.0,8.0,-999,0.00,,,0.00,,2013-07-14 17:53:00,
2013-07-14 13:01:00,83.0,-99.9,-100.00,SE,145,6.0,8.0,-999,0.00,,,0.00,,2013-07-14 18:01:00,
2013-07-14 13:11:00,83.0,-99.9,-100.00,SSE,159,5.0,9.0,-999,0.00,,,0.00,,2013-07-14 18:11:00,
2013-07-14 13:22:00,83.0,-99.9,-100.00,SSE,159,5.0,9.0,-999,0.00,,,0.00,,2013-07-14 18:22:00,
2013-07-14 13:32:00,83.0,-99.9,-100.00,SSE,159,5.0,9.0,-999,0.00,,,0.00,,2013-07-14 18:32:00,
2013-07-14 13:42:00,83.0,-99.9,-100.00,SSE,161,5.0,6.0,-999,0.00,,,0.00,,2013-07-14 18:42:00,
2013-07-14 13:52:00,83.0,-99.9,-100.00,SSE,161,5.0,6.0,-999,0.00,,,0.00,,2013-07-14 18:52:00,
2013-07-14 14:02:00,83.0,-99.9,-100.00,SSE,161,5.0,6.0,-999,0.00,,,0.00,,2013-07-14 19:02:00,
2013-07-14 14:12:00,84.0,-99.9,-100.00,SE,146,7.0,11.0,-999,0.00,,,0.00,,2013-07-14 19:12:00,
2013-07-14 14:22:00,84.0,-99.9,-100.00,SE,146,7.0,11.0,-999,0.00,,,0.00,,2013-07-14 19:22:00,
2013-07-14 14:32:00,84.0,-99.9,-100.00,SE,146,7.0,11.0,-999,0.00,,,0.00,,2013-07-14 19:32:00,
2013-07-14 14:43:00,84.0,-99.9,-100.00,ESE,113,6.0,9.0,-999,0.00,,,0.00,,2013-07-14 19:43:00,
2013-07-14 14:53:00,84.0,-99.9,-100.00,ESE,113,6.0,9.0,-999,0.00,,,0.00,,2013-07-14 19:53:00,
2013-07-14 15:02:00,84.0,-99.9,-100.00,ESE,113,6.0,9.0,-999,0.00,,,0.00,,2013-07-14 20:02:00,
2013-07-14 15:11:00,86.0,-99.9,-100.00,ESE,122,6.0,7.0,-999,0.00,,,0.00,,2013-07-14 20:11:00,
2013-07-14 15:22:00,86.0,-99.9,-100.00,ESE,122,6.0,7.0,-999,0.00,,,0.00,,2013-07-14 20:22:00,
2013-07-14 15:32:00,86.0,-99.9,-100.00,ESE,122,6.0,7.0,-999,0.00,,,0.00,,2013-07-14 20:32:00,
2013-07-14 15:43:00,85.0,-99.9,-100.00,ESE,121,9.0,12.0,-999,0.00,,,0.00,,2013-07-14 20:43:00,
2013-07-14 15:53:00,85.0,-99.9,-100.00,ESE,121,9.0,12.0,-999,0.00,,,0.00,,2013-07-14 20:53:00,
2013-07-14 16:02:00,85.0,-99.9,-100.00,ESE,121,9.0,12.0,-999,0.00,,,0.00,,2013-07-14 21:02:00,
2013-07-14 16:11:00,86.0,-99.9,-100.00,SE,145,7.0,8.0,-999,0.00,,,0.00,,2013-07-14 21:11:00,
2013-07-14 16:22:00,86.0,-99.9,-100.00,SE,145,7.0,8.0,-999,0.00,,,0.00,,2013-07-14 21:22:00,
2013-07-14 16:32:00,86.0,-99.9,-100.00,SE,145,7.0,8.0,-999,0.00,,,0.00,,2013-07-14 21:32:00,
2013-07-14 16:43:00,87.0,-99.9,-100.00,SE,130,7.0,13.0,-999,0.00,,,0.00,,2013-07-14 21:43:00,
2013-07-14 16:53:00,87.0,-99.9,-100.00,SE,130,7.0,13.0,-999,0.00,,,0.00,,2013-07-14 21:53:00,
2013-07-14 17:02:00,87.0,-99.9,-100.00,SE,130,7.0,13.0,-999,0.00,,,0.00,,2013-07-14 22:02:00,
2013-07-14 17:11:00,87.0,-99.9,-100.00,ESE,123,6.0,9.0,-999,0.00,,,0.00,,2013-07-14 22:11:00,
2013-07-14 17:22:00,87.0,-99.9,-100.00,ESE,123,6.0,9.0,-999,0.00,,,0.00,,2013-07-14 22:22:00,
2013-07-14 17:32:00,87.0,-99.9,-100.00,ESE,123,6.0,9.0,-999,0.00,,,0.00,,2013-07-14 22:32:00,
2013-07-14 17:42:00,86.0,-99.9,-100.00,SE,124,8.0,11.0,-999,0.00,,,0.00,,2013-07-14 22:42:00,
2013-07-14 17:54:00,86.0,-99.9,-100.00,SE,124,8.0,11.0,-999,0.00,,,0.00,,2013-07-14 22:54:00,
2013-07-14 18:02:00,86.0,-99.9,-100.00,SE,124,8.0,11.0,-999,0.00,,,0.00,,2013-07-14 23:02:00,
2013-07-14 18:11:00,87.0,-99.9,-100.00,ESE,113,7.0,14.0,-999,0.00,,,0.00,,2013-07-14 23:11:00,
2013-07-14 18:22:00,87.0,-99.9,-100.00,ESE,113,7.0,14.0,-999,0.00,,,0.00,,2013-07-14 23:22:00,
2013-07-14 18:32:00,87.0,-99.9,-100.00,ESE,113,7.0,14.0,-999,0.00,,,0.00,,2013-07-14 23:32:00,
2013-07-14 18:40:00,86.0,-99.9,-100.00,SE,127,6.0,8.0,-999,0.00,,,0.00,,2013-07-14 23:40:00,
2013-07-14 18:42:00,86.0,-99.9,-100.00,SE,143,7.0,10.0,-999,0.00,,,-99.99,,2013-07-14 23:42:00,
2013-07-14 18:53:00,86.0,-99.9,-100.00,SE,143,7.0,10.0,-999,0.00,,,-99.99,,2013-07-14 23:53:00,
2013-07-14 19:02:00,86.0,-99.9,-100.00,SE,143,7.0,10.0,-999,0.00,,,-99.99,,2013-07-15 00:02:00,
2013-07-14 19:11:00,86.0,-99.9,-100.00,SE,127,6.0,8.0,-999,0.00,,,0.00,,2013-07-15 00:11:00,
2013-07-14 19:22:00,86.0,-99.9,-100.00,SE,127,6.0,8.0,-999,0.00,,,0.00,,2013-07-15 00:22:00,
2013-07-14 19:32:00,86.0,-99.9,-100.00,SE,127,6.0,8.0,-999,0.00,,,0.00,,2013-07-15 00:32:00,
2013-07-14 20:12:00,84.0,-99.9,-100.00,SE,130,3.0,4.0,-999,0.00,,,0.00,,2013-07-15 01:12:00,
2013-07-14 20:22:00,84.0,-99.9,-100.00,SE,130,3.0,4.0,-999,0.00,,,0.00,,2013-07-15 01:22:00,
2013-07-14 20:32:00,84.0,-99.9,-100.00,SE,130,3.0,4.0,-999,0.00,,,0.00,,2013-07-15 01:32:00,
2013-07-14 20:43:00,84.0,-99.9,-100.00,SE,142,5.0,7.0,-999,0.00,,,0.00,,2013-07-15 01:43:00,
2013-07-14 20:53:00,84.0,-99.9,-100.00,SE,142,5.0,7.0,-999,0.00,,,0.00,,2013-07-15 01:53:00,
2013-07-14 21:02:00,84.0,-99.9,-100.00,SE,142,5.0,7.0,-999,0.00,,,0.00,,2013-07-15 02:02:00,
2013-07-14 21:11:00,81.0,-99.9,-100.00,SE,146,2.0,3.0,-999,0.00,,,0.00,,2013-07-15 02:11:00,
2013-07-14 21:22:00,81.0,-99.9,-100.00,SE,146,2.0,3.0,-999,0.00,,,0.00,,2013-07-15 02:22:00,
2013-07-14 21:32:00,81.0,-99.9,-100.00,SE,146,2.0,3.0,-999,0.00,,,0.00,,2013-07-15 02:32:00,
2013-07-14 21:42:00,80.0,-99.9,-100.00,SSE,154,1.0,2.0,-999,0.00,,,0.00,,2013-07-15 02:42:00,
2013-07-14 21:53:00,80.0,-99.9,-100.00,SSE,154,1.0,2.0,-999,0.00,,,0.00,,2013-07-15 02:53:00,
2013-07-14 22:02:00,80.0,-99.9,-100.00,SSE,154,1.0,2.0,-999,0.00,,,0.00,,2013-07-15 03:02:00,
2013-07-14 22:10:00,76.0,-99.9,-100.00,NE,52,2.0,3.0,-999,0.00,,,0.00,,2013-07-15 03:10:00,
2013-07-14 22:11:00,77.0,-99.9,-100.00,NE,51,1.0,2.0,-999,0.00,,,0.00,,2013-07-15 03:11:00,
2013-07-14 22:22:00,77.0,-99.9,-100.00,NE,51,1.0,2.0,-999,0.00,,,0.00,,2013-07-15 03:22:00,
2013-07-14 22:32:00,77.0,-99.9,-100.00,NE,51,1.0,2.0,-999,0.00,,,0.00,,2013-07-15 03:32:00,
2013-07-14 22:43:00,76.0,-99.9,-100.00,NE,52,2.0,3.0,-999,0.00,,,0.00,,2013-07-15 03:43:00,
2013-07-14 22:53:00,76.0,-99.9,-100.00,NE,52,2.0,3.0,-999,0.00,,,0.00,,2013-07-15 03:53:00,
2013-07-14 23:02:00,76.0,-99.9,-100.00,NE,52,2.0,3.0,-999,0.00,,,0.00,,2013-07-15 04:02:00,
2013-07-14 23:42:00,75.0,-99.9,-100.00,NE,50,2.0,3.0,-999,0.00,,,0.00,,2013-07-15 04:42:00,
2013-07-14 23:54:00,75.0,-99.9,-100.00,NE,50,2.0,3.0,-999,0.00,,,0.00,,2013-07-15 04:54:00,